CW2674 Weather Reports


Display with metric or nautical units.
time (UTC)temp
F
wind
direction
speed
MPH
gust
MPH
rain 1hr
in
rain 24hr
in
rain mn
in
humidity
%
barometer
mb
20260509214404 107 254 10.0 16.0 0.00 0.00 0.00 8 1007.1
20260509210404 107 201 8.0 15.0 0.00 0.00 0.00 9 1007.6
20260509204404 106 238 7.0 13.0 0.00 0.00 0.00 10 1008.1
20260509203404 106 261 4.0 12.0 0.00 0.00 0.00 10 1008.3
20260509201404 104 248 5.0 12.0 0.00 0.00 0.00 11 1008.5
20260509200405 104 277 6.0 10.0 0.00 0.00 0.00 10 1008.8
20260509194405 103 273 4.0 10.0 0.00 0.00 0.00 11 1009.0
20260509193404 102 283 3.0 9.0 0.00 0.00 0.00 11 1009.2
20260509191404 102 158 3.0 9.0 0.00 0.00 0.00 12 1009.4
20260509190403 101 240 5.0 9.0 0.00 0.00 0.00 12 1009.5
20260509184404 100 222 2.0 8.0 0.00 0.00 0.00 13 1009.7
20260509183404 100 204 3.0 6.0 0.00 0.00 0.00 14 1009.8
20260509181405 99 213 3.0 7.0 0.00 0.00 0.00 14 1010.2
20260509180404 98 216 3.0 6.0 0.00 0.00 0.00 14 1010.3
20260509174405 96 224 2.0 5.0 0.00 0.00 0.00 15 1010.4
20260509173404 95 221 2.0 6.0 0.00 0.00 0.00 15 1010.4
20260509171405 94 218 2.0 6.0 0.00 0.00 0.00 17 1010.6
20260509170406 92 211 2.0 5.0 0.00 0.00 0.00 17 1010.7
20260509164404 90 209 2.0 5.0 0.00 0.00 0.00 19 1010.7
20260509163404 90 210 1.0 6.0 0.00 0.00 0.00 19 1010.6
20260509161404 88 230 2.0 5.0 0.00 0.00 0.00 18 1010.7
20260509160405 87 230 2.0 10.0 0.00 0.00 0.00 19 1010.7
20260509154404 85 232 3.0 7.0 0.00 0.00 0.00 21 1010.7
20260509153406 84 229 3.0 9.0 0.00 0.00 0.00 21 1010.6
20260509151404 81 222 2.0 3.0 0.00 0.00 0.00 25 1010.6
20260509150403 81 218 2.0 3.0 0.00 0.00 0.00 22 1010.6
20260509144404 79 218 0.0 2.0 0.00 0.00 0.00 24 1010.4
20260509143405 77 218 0.0 3.0 0.00 0.00 0.00 29 1010.3
20260509141405 74 218 0.0 0.0 0.00 0.00 0.00 32 1010.2
20260509140404 74 218 0.0 3.0 0.00 0.00 0.00 32 1010.2
20260509133405 71 218 0.0 2.0 0.00 0.00 0.00 31 1009.9
20260509131405 70 218 1.0 2.0 0.00 0.00 0.00 28 1009.6
20260509130405 71 218 1.0 3.0 0.00 0.00 0.00 27 1009.5
20260509071404 79 238 0.0 0.0 0.00 0.00 0.00 22 1008.2
20260509070404 79 238 0.0 0.0 0.00 0.00 0.00 22 1008.1
20260509063405 82 238 0.0 3.0 0.00 0.00 0.00 20 1008.1
20260509060404 86 243 3.0 9.0 0.00 0.00 0.00 18 1007.9
20260509054404 87 226 3.0 7.0 0.00 0.00 0.00 18 1007.8
20260509053404 87 230 3.0 7.0 0.00 0.00 0.00 17 1007.8
20260509051405 88 242 4.0 9.0 0.00 0.00 0.00 17 1007.7
20260509050404 88 223 4.0 9.0 0.00 0.00 0.00 17 1007.7
20260509044404 89 244 4.0 10.0 0.00 0.00 0.00 17 1007.7
20260509043404 90 227 5.0 13.0 0.00 0.00 0.00 17 1007.7
20260509041404 91 241 5.0 17.0 0.00 0.00 0.00 15 1007.5
20260509040405 92 228 7.0 13.0 0.00 0.00 0.00 15 1007.3
20260509034405 91 238 6.0 12.0 0.00 0.00 0.00 16 1007.1
20260509033404 92 224 5.0 9.0 0.00 0.00 0.00 16 1006.9
20260509031404 92 229 3.0 7.0 0.00 0.00 0.00 16 1006.7
20260509030405 93 234 5.0 7.0 0.00 0.00 0.00 15 1006.6
20260509024404 94 242 4.0 8.0 0.00 0.00 0.00 13 1006.3
20260509023404 95 270 6.0 12.0 0.00 0.00 0.00 12 1006.2
20260509021405 97 271 7.0 12.0 0.00 0.00 0.00 11 1006.1
20260508223404 104 339 5.0 14.0 0.00 0.00 0.00 11 1007.2
20260508221404 103 302 5.0 15.0 0.00 0.00 0.00 11 1007.6